Location: Bremen
(53.0793°N, 8.8017°E)
Time: 22:34:56
(UTC+01:00)

Explorer 7 - Pass Details

Date: 05 December 2021
Orbit: 483 x 674 km, 50.3° (Epoch: 17 January)

Event Time Altitude Azimuth Distance (km) Brightness Sun altitude
Rises 07:56:27 0° 256° (WSW) 2,773 10.0 -3.9°
Reaches altitude 10° 07:58:47 10° 252° (WSW) 1,842 9.1 -3.6°
Maximum altitude 08:02:53 57° 174° (S) 635 7.5 -3.1°
Drops below altitude 10° 08:06:45 10° 96° (E) 1,739 10.5 -2.6°
Sets 08:08:55 0° 92° (E) 2,602 11.3 -2.3°
